Zurück zum Katalog

COSMOS 1961

AktivMilitärGEO
NORAD 19344·PAYLOAD·🇷🇺 Russia

Gestartet Aug 1, 1988 von Baikonur Cosmodrome

Loading…

TLE

AktuellSource: Space-Track

Epoche: Sep 14, 2026, 17:35 UTC

1 19344U 88066A   26257.73272074 -.00000117  00000-0  00000-0 0  9993
2 19344  11.3561 329.1442 0003807 184.3036 180.0527  1.00260421139910

Verfolge COSMOS 1961 in Echtzeit mit AllMySat

Download on the App Store